Weather Roundup
Issued by NWS

Home | Current Version | Previous Version | Graphics & Text | Print | Product List | Glossary Off
Versions: 1 2 3 4 5 6 7 8 9 10 11 12 13 14 15 16 17 18 19 20 21 22 23 24 25 26 27 28 29 30 31 32 33 34 35 36 37 38 39 40 41 42 43 44 45 46 47 48 49 50

000
NZUS93 KARX 271010
HRRWXR

CURRENT HOURLY OBSERVATIONS ACROSS
MUCH OF THE UPPER MISSISSIPPI VALLEY
NATIONAL WEATHER SERVICE LA CROSSE WI
400 AM CST TUE JAN 27 2015


...SOUTHEAST MINNESOTA...


CITY           SKY/WX    TMP DP  RH WIND       PRES   REMARKS
ROCHESTER      CLOUDY    33  28  81 N12       30.03R WCI  24
ROCHESTER/MAYO CLOUDY    34  26  74 N5        30.04R WCI  30
WINONA         CLOUDY    32  28  86 E5        30.07R WCI  27
AUSTIN         CLOUDY    34  28  80 N6        30.03S WCI  29
ALBERT LEA     CLOUDY    34  30  86 N5        30.04R WCI  30
DODGE CENTER   CLOUDY    34  30  86 N7        30.04R WCI  28
PRESTON        CLOUDY    32  29  90 N8        30.03R WCI  25
OWATONNA       CLOUDY    34  30  86 N3        30.05R
FARIBAULT      CLOUDY    34  28  80 N5        30.06R WCI  30
$$

...ELSEWHERE IN MINNESOTA...


CITY           SKY/WX    TMP DP  RH WIND       PRES   REMARKS
MINNEAPOLIS    CLOUDY    33  25  72 NW6       30.07R WCI  28
INTNL FALLS    CLOUDY    23  20  88 CALM      30.05R
DULUTH         CLOUDY    26  21  81 N3        30.04R
RED WING       CLOUDY    34  25  69 NE6       30.06R WCI  29
REDWOOD FALLS  CLOUDY    31  28  89 CALM      30.07R
MANKATO        CLOUDY    32  27  80 CALM      30.06R
WORTHINGTON    CLOUDY    30  28  93 N9        30.05F WCI  22
FAIRMONT       CLEAR     28  25  86 NW9       30.06R WCI  20
$$

...SOUTHWEST WISCONSIN...


CITY           SKY/WX    TMP DP  RH WIND       PRES   REMARKS
LA CROSSE      CLOUDY    31  23  72 N9        30.06R WCI  23
PRAIRIE DU CHI CLOUDY    32  25  76 N5        30.04R WCI  27
BOSCOBEL       MOCLDY    30  25  81 N7        30.04R WCI  23
LONE ROCK      CLOUDY    28  23  81 N8        30.04R WCI  20
PLATTEVILLE    CLOUDY    29  27  92 NW8       30.00R WCI  21
FORT MC COY    CLOUDY    27  26  96 CALM      30.06R
CAMP DOUGLAS   CLOUDY    24  24 100 NW5       30.04R WCI  18
VIROQUA        PTSUNNY   27  24  87 N18       30.00R WCI  14
WIS DELLS      CLOUDY    23  21  92 N3        30.02R FOG
$$

...ELSEWHERE IN WISCONSIN...


CITY           SKY/WX    TMP DP  RH WIND       PRES   REMARKS
MILWAUKEE      CLOUDY    28  22  78 N3        30.00R
MADISON        CLOUDY    25  22  88 N6        30.01R FOG     WCI  18
GREEN BAY      CLOUDY    24  20  84 NE5       30.06R WCI  18
EAU CLAIRE     CLOUDY    27  22  81 NE7       30.06R WCI  19
BLACK RVR FLS  CLOUDY    27  26  96 N3        30.05R
MEDFORD        CLOUDY    21  19  95 CALM      30.01S FOG
WAUSAU         CLOUDY    22  19  89 N3        30.02R
WIS RAPIDS     CLOUDY    22  19  89 N6        30.04R WCI  14
MARSHFIELD     CLOUDY    23  20  88 N8        30.03R FOG     WCI  14
RICE LAKE      CLOUDY    28  24  83 N3        30.07R
$$

...NORTHEAST IOWA...


CITY           SKY/WX    TMP DP  RH WIND       PRES   REMARKS
DECORAH        CLOUDY    32  30  93 VRB5      30.02R WCI  27
MASON CITY     CLEAR     28  26  92 NW7       30.05R WCI  21
CHARLES CITY   CLOUDY    34  34 100 NW8       30.04R WCI  27
OELWEIN        CLOUDY    34  32  93 NW10      30.02R WCI  26
$$

...ELSEWHERE IN IOWA...


CITY           SKY/WX    TMP DP  RH WIND       PRES   REMARKS
DES MOINES     CLEAR     33  29  85 NW7       30.06S WCI  27
IOWA CITY      CLOUDY    34  31  88 NW6       30.04R WCI  29
FORT DODGE     CLEAR     30  27  86 CALM      30.07R
$$

...NORTHERN ILLINOIS...


CITY           SKY/WX    TMP DP  RH WIND       PRES   REMARKS
CHICAGO-OHARE  CLOUDY    27  24  89 N3        29.97R
CHICAGO-MIDWAY CLOUDY    29  26  89 CALM      29.98R FOG
MOLINE         CLOUDY    35  29  78 N7        29.99R WCI  29
ROCKFORD       CLOUDY    27  24  89 N6        30.00R FOG     WCI  20
PEORIA         MOCLDY    31  28  89 N7        29.98R FOG     WCI  24
$$

NOTE: "FAIR" INDICATES FEW OR NO CLOUDS BELOW 12,000 FEET WITH NO
SIGNIFICANT WEATHER AND/OR OBSTRUCTIONS TO VISIBILITY. WIND
SPEEDS ARE IN MILES-PER-HOUR.



USA.gov is the U.S. government's official web portal to all federal, state and local government web resources and services.